| time (UTC) | temp C | wind direction | speed KPH | gust KPH | rain 1hr cm | rain 24hr cm | rain mn cm | humidity % | barometer mb |
| 20260504193010 | 21 | 246 | 6.4 | 9.7 | 0.00 | 0.00 | 0.00 | 33 | 1024.9 |
| 20260504192508 | 20 | 257 | 8.0 | 11.3 | 0.00 | 0.00 | 0.00 | 34 | 1024.9 |
| 20260504192006 | 21 | 353 | 9.7 | 14.5 | 0.00 | 0.00 | 0.00 | 31 | 1024.9 |
| 20260504191504 | 20 | 294 | 6.4 | 9.7 | 0.00 | 0.00 | 0.00 | 33 | 1025.0 |
| 20260504190959 | 20 | 75 | 1.6 | 3.2 | 0.00 | 0.00 | 0.00 | 33 | 1024.9 |
| 20260504190455 | 21 | 258 | 6.4 | 9.7 | 0.00 | 0.00 | 0.00 | 31 | 1024.9 |
| 20260504185952 | 21 | 287 | 11.3 | 16.1 | 0.00 | 0.00 | 0.00 | 30 | 1024.8 |
| 20260504185449 | 21 | 344 | 11.3 | 12.9 | 0.00 | 0.00 | 0.00 | 31 | 1025.1 |
| 20260504184945 | 21 | 314 | 9.7 | 14.5 | 0.00 | 0.00 | 0.00 | 31 | 1025.0 |
| 20260504184441 | 21 | 349 | 6.4 | 9.7 | 0.00 | 0.00 | 0.00 | 30 | 1025.0 |
| 20260504183937 | 21 | 270 | 12.9 | 16.1 | 0.00 | 0.00 | 0.00 | 31 | 1025.1 |
| 20260504183434 | 21 | 278 | 6.4 | 9.7 | 0.00 | 0.00 | 0.00 | 33 | 1025.0 |
| 20260504182932 | 21 | 250 | 4.8 | 9.7 | 0.00 | 0.00 | 0.00 | 32 | 1025.0 |
| 20260504182429 | 20 | 338 | 6.4 | 11.3 | 0.00 | 0.00 | 0.00 | 33 | 1025.3 |
| 20260504181926 | 20 | 294 | 9.7 | 14.5 | 0.00 | 0.00 | 0.00 | 33 | 1025.2 |
| 20260504181423 | 20 | 292 | 4.8 | 9.7 | 0.00 | 0.00 | 0.00 | 31 | 1025.5 |
| 20260504180922 | 20 | 259 | 6.4 | 6.4 | 0.00 | 0.00 | 0.00 | 34 | 1025.6 |
| 20260504180420 | 21 | 208 | 14.5 | 17.7 | 0.00 | 0.00 | 0.00 | 31 | 1025.6 |
| 20260504175918 | 20 | 139 | 4.8 | 6.4 | 0.00 | 0.00 | 0.00 | 35 | 1025.6 |
| 20260504175415 | 20 | 217 | 1.6 | 1.6 | 0.00 | 0.00 | 0.00 | 32 | 1025.6 |
| 20260504174912 | 20 | 131 | 3.2 | 4.8 | 0.00 | 0.00 | 0.00 | 33 | 1025.5 |
| 20260504174410 | 20 | 253 | 8.0 | 16.1 | 0.00 | 0.00 | 0.00 | 31 | 1025.9 |
| 20260504173907 | 20 | 223 | 3.2 | 3.2 | 0.00 | 0.00 | 0.00 | 33 | 1025.9 |
| 20260504173403 | 20 | 343 | 4.8 | 6.4 | 0.00 | 0.00 | 0.00 | 33 | 1025.9 |
| 20260504172901 | 20 | 291 | 6.4 | 6.4 | 0.00 | 0.00 | 0.00 | 31 | 1025.9 |
| 20260504172357 | 20 | 160 | 1.6 | 1.6 | 0.00 | 0.00 | 0.00 | 32 | 1026.0 |
| 20260504171853 | 20 | 224 | 12.9 | 16.1 | 0.00 | 0.00 | 0.00 | 30 | 1026.1 |
| 20260504171350 | 20 | 309 | 8.0 | 11.3 | 0.00 | 0.00 | 0.00 | 32 | 1026.0 |
| 20260504170847 | 20 | 30 | 6.4 | 9.7 | 0.00 | 0.00 | 0.00 | 34 | 1025.7 |
| 20260504170344 | 20 | 231 | 3.2 | 3.2 | 0.00 | 0.00 | 0.00 | 33 | 1026.1 |
| 20260504160303 | 18 | 199 | 4.8 | 6.4 | 0.00 | 0.00 | 0.00 | 34 | 1026.7 |
| 20260504150728 | 18 | 186 | 4.8 | 6.4 | 0.00 | 0.00 | 0.00 | 37 | 1027.5 |
| 20260504150224 | 17 | 253 | 4.8 | 4.8 | 0.00 | 0.00 | 0.00 | 35 | 1027.2 |
| 20260504141154 | 16 | 162 | 1.6 | 1.6 | 0.00 | 0.00 | 0.00 | 41 | 1027.9 |
| 20260504140650 | 16 | 246 | 3.2 | 4.8 | 0.00 | 0.00 | 0.00 | 39 | 1027.7 |
| 20260504140146 | 16 | 286 | 9.7 | 16.1 | 0.00 | 0.00 | 0.00 | 37 | 1027.9 |
| 20260504130614 | 14 | 276 | 4.8 | 4.8 | 0.00 | 0.00 | 0.00 | 45 | 1028.5 |
| 20260504130111 | 14 | 210 | 3.2 | 3.2 | 0.00 | 0.00 | 0.00 | 44 | 1028.4 |
| 20260504110502 | 8 | 274 | 1.6 | 1.6 | 0.00 | 0.00 | 0.00 | 55 | 1028.6 |
| 20260504100424 | 7 | 109 | 0.0 | 0.0 | 0.00 | 0.00 | 0.00 | 56 | 1028.4 |
| 20260504081817 | 8 | 112 | 0.0 | 0.0 | 0.00 | 0.00 | 0.00 | 53 | 1027.6 |
| 20260504081314 | 8 | 147 | 0.0 | 0.0 | 0.00 | 0.00 | 0.00 | 52 | 1027.6 |
| 20260504080810 | 8 | 98 | 0.0 | 1.6 | 0.00 | 0.00 | 0.00 | 50 | 1027.5 |
| 20260504080307 | 8 | 105 | 1.6 | 1.6 | 0.00 | 0.00 | 0.00 | 51 | 1027.7 |
| 20260504070235 | 8 | 131 | 0.0 | 0.0 | 0.00 | 0.00 | 0.00 | 54 | 1027.6 |
| 20260504060155 | 6 | 141 | 0.0 | 0.0 | 0.00 | 0.00 | 0.00 | 67 | 1027.8 |
| 20260504050623 | 4 | 121 | 1.6 | 1.6 | 0.00 | 0.00 | 0.00 | 69 | 1027.8 |
| 20260504050120 | 4 | 130 | 0.0 | 1.6 | 0.00 | 0.00 | 0.00 | 68 | 1027.8 |
| 20260504045617 | 4 | 122 | 0.0 | 1.6 | 0.00 | 0.00 | 0.00 | 68 | 1027.9 |
| 20260504045112 | 4 | 118 | 0.0 | 0.0 | 0.00 | 0.00 | 0.00 | 68 | 1027.9 |
| 20260504044610 | 4 | 110 | 1.6 | 1.6 | 0.00 | 0.00 | 0.00 | 67 | 1028.1 |
| 20260504044106 | 4 | 127 | 0.0 | 0.0 | 0.00 | 0.00 | 0.00 | 67 | 1027.9 |
| 20260504043604 | 4 | 121 | 1.6 | 1.6 | 0.00 | 0.00 | 0.00 | 67 | 1027.9 |
| 20260504043101 | 4 | 112 | 1.6 | 1.6 | 0.00 | 0.00 | 0.00 | 66 | 1028.0 |
| 20260504042558 | 4 | 106 | 1.6 | 1.6 | 0.00 | 0.00 | 0.00 | 65 | 1028.0 |
| 20260504042055 | 4 | 90 | 1.6 | 1.6 | 0.00 | 0.00 | 0.00 | 67 | 1028.1 |
| 20260504041550 | 4 | 99 | 1.6 | 1.6 | 0.00 | 0.00 | 0.00 | 66 | 1027.9 |
| 20260504041047 | 4 | 106 | 1.6 | 1.6 | 0.00 | 0.00 | 0.00 | 67 | 1027.9 |
| 20260504040544 | 4 | 112 | 0.0 | 0.0 | 0.00 | 0.00 | 0.00 | 67 | 1027.9 |
| 20260504040041 | 4 | 111 | 0.0 | 0.0 | 0.00 | 0.00 | 0.00 | 66 | 1027.8 |
| 20260504035538 | 4 | 113 | 1.6 | 1.6 | 0.00 | 0.00 | 0.00 | 67 | 1027.9 |
| 20260504035034 | 4 | 112 | 0.0 | 1.6 | 0.00 | 0.00 | 0.00 | 66 | 1027.8 |
| 20260504034533 | 5 | 106 | 0.0 | 1.6 | 0.00 | 0.00 | 0.00 | 65 | 1027.6 |
| 20260504034029 | 5 | 116 | 1.6 | 1.6 | 0.00 | 0.00 | 0.00 | 63 | 1027.7 |
| 20260504033527 | 5 | 128 | 0.0 | 0.0 | 0.00 | 0.00 | 0.00 | 63 | 1027.6 |
| 20260504033024 | 4 | 121 | 0.0 | 0.0 | 0.00 | 0.00 | 0.00 | 63 | 1027.6 |
| 20260504032521 | 4 | 126 | 0.0 | 0.0 | 0.00 | 0.00 | 0.00 | 66 | 1027.7 |
| 20260504032017 | 4 | 109 | 0.0 | 0.0 | 0.00 | 0.00 | 0.00 | 66 | 1027.7 |
| 20260504031515 | 4 | 111 | 0.0 | 0.0 | 0.00 | 0.00 | 0.00 | 64 | 1027.6 |
| 20260504031010 | 4 | 114 | 0.0 | 0.0 | 0.00 | 0.00 | 0.00 | 64 | 1027.8 |
| 20260504030508 | 4 | 112 | 0.0 | 0.0 | 0.00 | 0.00 | 0.00 | 64 | 1027.6 |
| 20260504030004 | 4 | 120 | 0.0 | 0.0 | 0.00 | 0.00 | 0.00 | 65 | 1027.7 |
| 20260504025501 | 4 | 128 | 0.0 | 0.0 | 0.00 | 0.00 | 0.00 | 66 | 1027.6 |
| 20260504024958 | 4 | 104 | 0.0 | 1.6 | 0.00 | 0.00 | 0.00 | 66 | 1027.5 |
| 20260504024455 | 4 | 116 | 0.0 | 0.0 | 0.00 | 0.00 | 0.00 | 66 | 1027.7 |
| 20260504023952 | 4 | 120 | 0.0 | 0.0 | 0.00 | 0.00 | 0.00 | 68 | 1027.6 |
| 20260504023449 | 4 | 135 | 0.0 | 0.0 | 0.00 | 0.00 | 0.00 | 68 | 1027.5 |
| 20260504022944 | 4 | 111 | 0.0 | 0.0 | 0.00 | 0.00 | 0.00 | 66 | 1027.4 |
| 20260504022440 | 4 | 132 | 0.0 | 0.0 | 0.00 | 0.00 | 0.00 | 67 | 1027.5 |
| 20260504021937 | 4 | 123 | 0.0 | 1.6 | 0.00 | 0.00 | 0.00 | 68 | 1027.5 |
| 20260504021435 | 4 | 150 | 0.0 | 0.0 | 0.00 | 0.00 | 0.00 | 66 | 1027.6 |
| 20260504020932 | 4 | 117 | 0.0 | 1.6 | 0.00 | 0.00 | 0.00 | 66 | 1027.2 |
| 20260504020428 | 4 | 117 | 1.6 | 1.6 | 0.00 | 0.00 | 0.00 | 67 | 1027.4 |
| 20260504015925 | 4 | 114 | 1.6 | 3.2 | 0.00 | 0.00 | 0.00 | 66 | 1027.4 |
| 20260504015421 | 5 | 106 | 1.6 | 1.6 | 0.00 | 0.00 | 0.00 | 66 | 1027.1 |
| 20260504014917 | 5 | 113 | 0.0 | 1.6 | 0.00 | 0.00 | 0.00 | 65 | 1027.3 |
| 20260504014413 | 5 | 118 | 0.0 | 1.6 | 0.00 | 0.00 | 0.00 | 65 | 1027.2 |
| 20260504013910 | 5 | 107 | 1.6 | 1.6 | 0.00 | 0.00 | 0.00 | 65 | 1027.0 |
| 20260504013409 | 5 | 115 | 0.0 | 1.6 | 0.00 | 0.00 | 0.00 | 65 | 1027.2 |
| 20260504012904 | 5 | 109 | 1.6 | 1.6 | 0.00 | 0.00 | 0.00 | 65 | 1027.2 |
| 20260504012403 | 5 | 112 | 1.6 | 1.6 | 0.00 | 0.00 | 0.00 | 64 | 1027.0 |
| 20260504011859 | 5 | 114 | 1.6 | 1.6 | 0.00 | 0.00 | 0.00 | 64 | 1027.2 |
| 20260504011356 | 5 | 108 | 1.6 | 1.6 | 0.00 | 0.00 | 0.00 | 65 | 1027.0 |
| 20260504010852 | 5 | 112 | 0.0 | 1.6 | 0.00 | 0.00 | 0.00 | 64 | 1026.8 |
| 20260504010348 | 5 | 109 | 0.0 | 0.0 | 0.00 | 0.00 | 0.00 | 63 | 1026.8 |
| 20260504005845 | 5 | 112 | 1.6 | 1.6 | 0.00 | 0.00 | 0.00 | 62 | 1026.7 |
| 20260504005341 | 5 | 109 | 1.6 | 1.6 | 0.00 | 0.00 | 0.00 | 62 | 1026.6 |
| 20260504004839 | 5 | 112 | 1.6 | 1.6 | 0.00 | 0.00 | 0.00 | 62 | 1026.6 |
| 20260504004337 | 5 | 108 | 1.6 | 1.6 | 0.00 | 0.00 | 0.00 | 62 | 1026.4 |
| 20260504003833 | 5 | 113 | 0.0 | 0.0 | 0.00 | 0.00 | 0.00 | 62 | 1026.4 |
| 20260504003330 | 5 | 111 | 1.6 | 1.6 | 0.00 | 0.00 | 0.00 | 62 | 1026.3 |
| 20260504002827 | 6 | 108 | 1.6 | 1.6 | 0.00 | 0.00 | 0.00 | 60 | 1026.3 |
| 20260504002323 | 6 | 111 | 1.6 | 1.6 | 0.00 | 0.00 | 0.00 | 59 | 1026.1 |
| 20260504001821 | 6 | 160 | 0.0 | 0.0 | 0.00 | 0.00 | 0.00 | 59 | 1026.2 |
| 20260504001318 | 6 | 160 | 0.0 | 0.0 | 0.00 | 0.00 | 0.00 | 56 | 1026.0 |
| 20260504000815 | 6 | 160 | 0.0 | 0.0 | 0.00 | 0.00 | 0.00 | 56 | 1025.9 |
| 20260504000312 | 6 | 168 | 0.0 | 0.0 | 0.00 | 0.00 | 0.00 | 55 | 1025.9 |
| 20260503235810 | 7 | 168 | 0.0 | 0.0 | 0.00 | 0.00 | 0.00 | 53 | 1025.8 |
| 20260503235307 | 7 | 169 | 0.0 | 0.0 | 0.00 | 0.00 | 0.00 | 51 | 1025.7 |
| 20260503234805 | 8 | 176 | 0.0 | 0.0 | 0.00 | 0.00 | 0.00 | 50 | 1025.7 |
| 20260503234302 | 10 | 175 | 0.0 | 0.0 | 0.00 | 0.00 | 0.00 | 47 | 1025.7 |
| 20260503233800 | 10 | 237 | 0.0 | 0.0 | 0.00 | 0.00 | 0.00 | 42 | 1025.8 |
| 20260503233255 | 10 | 262 | 0.0 | 0.0 | 0.00 | 0.00 | 0.00 | 41 | 1025.7 |
| 20260503232752 | 10 | 251 | 1.6 | 1.6 | 0.00 | 0.00 | 0.00 | 40 | 1025.7 |
| 20260503232250 | 11 | 252 | 0.0 | 0.0 | 0.00 | 0.00 | 0.00 | 38 | 1025.6 |
| 20260503231748 | 11 | 245 | 3.2 | 3.2 | 0.00 | 0.00 | 0.00 | 39 | 1025.6 |
| 20260503231245 | 11 | 267 | 6.4 | 6.4 | 0.00 | 0.00 | 0.00 | 37 | 1025.4 |
| 20260503230740 | 11 | 243 | 0.0 | 1.6 | 0.00 | 0.00 | 0.00 | 37 | 1025.5 |
| 20260503230238 | 11 | 257 | 3.2 | 4.8 | 0.00 | 0.00 | 0.00 | 37 | 1025.4 |
| 20260503225735 | 11 | 268 | 1.6 | 3.2 | 0.00 | 0.00 | 0.00 | 37 | 1025.6 |
| 20260503225235 | 11 | 200 | 3.2 | 3.2 | 0.00 | 0.00 | 0.00 | 37 | 1025.5 |
| 20260503224732 | 11 | 16 | 3.2 | 4.8 | 0.00 | 0.00 | 0.00 | 36 | 1025.4 |
| 20260503224230 | 11 | 263 | 3.2 | 4.8 | 0.00 | 0.00 | 0.00 | 36 | 1025.6 |
| 20260503223727 | 11 | 15 | 1.6 | 3.2 | 0.00 | 0.00 | 0.00 | 37 | 1025.4 |
| 20260503223225 | 11 | 349 | 3.2 | 4.8 | 0.00 | 0.00 | 0.00 | 36 | 1025.3 |
| 20260503222721 | 11 | 314 | 3.2 | 6.4 | 0.00 | 0.00 | 0.00 | 35 | 1025.4 |
| 20260503222219 | 12 | 312 | 6.4 | 6.4 | 0.00 | 0.00 | 0.00 | 35 | 1025.4 |
| 20260503221717 | 12 | 269 | 3.2 | 4.8 | 0.00 | 0.00 | 0.00 | 36 | 1025.3 |
| 20260503221215 | 12 | 298 | 1.6 | 3.2 | 0.00 | 0.00 | 0.00 | 36 | 1025.3 |
| 20260503220711 | 12 | 272 | 9.7 | 12.9 | 0.00 | 0.00 | 0.00 | 37 | 1025.5 |
| 20260503220208 | 12 | 237 | 6.4 | 9.7 | 0.00 | 0.00 | 0.00 | 36 | 1025.4 |
| 20260503215704 | 12 | 332 | 3.2 | 3.2 | 0.00 | 0.00 | 0.00 | 37 | 1025.4 |
| 20260503215201 | 12 | 303 | 11.3 | 12.9 | 0.00 | 0.00 | 0.00 | 37 | 1025.5 |
| 20260503214700 | 12 | 8 | 3.2 | 4.8 | 0.00 | 0.00 | 0.00 | 38 | 1025.4 |
| 20260503214155 | 12 | 325 | 4.8 | 6.4 | 0.00 | 0.00 | 0.00 | 36 | 1025.4 |
| 20260503213655 | 12 | 297 | 8.0 | 9.7 | 0.00 | 0.00 | 0.00 | 37 | 1025.3 |
| 20260503213151 | 12 | 268 | 4.8 | 11.3 | 0.00 | 0.00 | 0.00 | 38 | 1025.4 |
| 20260503212649 | 12 | 259 | 8.0 | 11.3 | 0.00 | 0.00 | 0.00 | 35 | 1025.4 |
| 20260503212146 | 12 | 262 | 3.2 | 4.8 | 0.00 | 0.00 | 0.00 | 38 | 1025.4 |
| 20260503211644 | 12 | 347 | 8.0 | 11.3 | 0.00 | 0.00 | 0.00 | 38 | 1025.1 |
| 20260503211138 | 12 | 290 | 8.0 | 9.7 | 0.00 | 0.00 | 0.00 | 35 | 1025.1 |
| 20260503210635 | 12 | 305 | 4.8 | 9.7 | 0.00 | 0.00 | 0.00 | 37 | 1025.1 |
| 20260503210132 | 12 | 289 | 4.8 | 6.4 | 0.00 | 0.00 | 0.00 | 36 | 1025.1 |
| 20260503205628 | 12 | 268 | 9.7 | 14.5 | 0.00 | 0.00 | 0.00 | 36 | 1025.1 |
| 20260503205124 | 11 | 310 | 4.8 | 6.4 | 0.00 | 0.00 | 0.00 | 37 | 1025.1 |
| 20260503204621 | 11 | 268 | 9.7 | 11.3 | 0.00 | 0.00 | 0.00 | 37 | 1025.2 |
| 20260503204119 | 11 | 230 | 12.9 | 14.5 | 0.00 | 0.00 | 0.00 | 39 | 1025.0 |
| 20260503203616 | 10 | 352 | 3.2 | 4.8 | 0.00 | 0.00 | 0.00 | 39 | 1025.0 |
| 20260503203113 | 10 | 81 | 6.4 | 9.7 | 0.00 | 0.00 | 0.00 | 38 | 1024.9 |
| 20260503202610 | 11 | 206 | 8.0 | 9.7 | 0.00 | 0.00 | 0.00 | 39 | 1024.9 |
| 20260503202108 | 11 | 256 | 6.4 | 6.4 | 0.00 | 0.00 | 0.00 | 38 | 1024.9 |
| 20260503201606 | 10 | 118 | 3.2 | 6.4 | 0.00 | 0.00 | 0.00 | 40 | 1024.9 |
| 20260503201103 | 11 | 35 | 4.8 | 11.3 | 0.00 | 0.00 | 0.00 | 39 | 1024.8 |
| 20260503200559 | 11 | 334 | 4.8 | 6.4 | 0.00 | 0.00 | 0.00 | 37 | 1024.9 |
| 20260503200056 | 11 | 285 | 4.8 | 9.7 | 0.00 | 0.00 | 0.00 | 42 | 1024.8 |
| 20260503195553 | 11 | 6 | 3.2 | 4.8 | 0.00 | 0.00 | 0.00 | 41 | 1024.7 |
| 20260503195050 | 11 | 288 | 1.6 | 3.2 | 0.00 | 0.00 | 0.00 | 41 | 1024.8 |
| 20260503194547 | 11 | 303 | 4.8 | 4.8 | 0.00 | 0.00 | 0.00 | 37 | 1024.8 |
| 20260503194047 | 11 | 286 | 6.4 | 6.4 | 0.00 | 0.00 | 0.00 | 39 | 1024.8 |
| 20260503193544 | 11 | 267 | 4.8 | 4.8 | 0.00 | 0.00 | 0.00 | 38 | 1024.8 |